KG7HVA-13 Weather Reports


time (UTC)temp
F
wind
direction
speed
knots
gust
knots
rain 1hr
in
rain 24hr
in
rain mn
in
humidity
%
barometer
mb
20260503225004 89 270 0.0 0.0 0.00 0.00 0.00 32 1011.5
20260503224504 89 270 0.0 0.0 0.00 0.00 0.00 32 1011.5
20260503224004 89 270 0.0 0.0 0.00 0.00 0.00 32 1011.8
20260503223504 89 270 0.0 0.0 0.00 0.00 0.00 32 1011.8
20260503223003 89 270 0.0 0.0 0.00 0.00 0.00 32 1011.7
20260503222004 90 248 0.0 0.0 0.00 0.00 0.00 32 1011.8
20260503221503 90 270 0.0 0.0 0.00 0.00 0.00 33 1011.8
20260503221004 91 252 0.0 2.6 0.00 0.00 0.00 33 1011.8
20260503215004 92 248 0.0 0.0 0.00 0.00 0.00 34 1012.1
20260503214504 92 248 0.0 0.0 0.00 0.00 0.00 33 1012.1
20260503214004 93 248 0.0 0.0 0.00 0.00 0.00 33 1012.1
20260503213504 93 229 0.0 0.0 0.00 0.00 0.00 33 1012.1
20260503213004 94 248 0.0 0.0 0.00 0.00 0.00 33 1012.5
20260503212504 94 256 0.0 0.0 0.00 0.00 0.00 33 1012.5
20260503212003 94 248 0.0 0.0 0.00 0.00 0.00 33 1012.5
20260503211504 95 248 0.0 0.0 0.00 0.00 0.00 34 1012.5
20260503211004 95 248 0.0 0.0 0.00 0.00 0.00 34 1012.7
20260503210503 96 248 0.0 0.0 0.00 0.00 0.00 33 1012.8
20260503210005 96 248 0.0 0.0 0.00 0.00 0.00 34 1012.8
20260503205504 96 280 0.0 0.0 0.00 0.00 0.00 34 1012.8
20260503205004 96 225 0.0 0.0 0.00 0.00 0.00 34 1012.8
20260503204504 96 225 0.0 0.0 0.00 0.00 0.00 36 1012.8
20260503204004 95 292 0.0 0.0 0.00 0.00 0.00 35 1013.2
20260503202004 95 270 0.0 0.0 0.00 0.00 0.00 37 1013.2
20260503201504 95 270 0.0 0.0 0.00 0.00 0.00 37 1013.5
20260503201003 95 270 0.0 0.0 0.00 0.00 0.00 37 1013.5
20260503200504 95 270 0.0 0.0 0.00 0.00 0.00 37 1013.5
20260503200003 94 270 0.0 0.0 0.00 0.00 0.00 37 1013.5
20260503195504 94 275 0.0 0.0 0.00 0.00 0.00 38 1013.7
20260503195005 94 292 0.0 0.0 0.00 0.00 0.00 37 1013.8
20260503194004 93 270 0.0 0.0 0.00 0.00 0.00 39 1013.8
20260503193504 93 270 0.0 0.0 0.00 0.00 0.00 39 1013.8
20260503193004 93 270 0.0 0.0 0.00 0.00 0.00 39 1013.8
20260503192505 92 270 0.0 0.0 0.00 0.00 0.00 39 1013.8
20260503192004 92 270 0.0 0.0 0.00 0.00 0.00 39 1014.2
20260503191004 91 270 0.0 0.0 0.00 0.00 0.00 40 1014.2
20260503190504 91 270 0.0 0.0 0.00 0.00 0.00 40 1014.5
20260503190004 91 248 0.0 0.0 0.00 0.00 0.00 40 1014.5
20260503185503 91 270 0.0 0.0 0.00 0.00 0.00 41 1014.5
20260503185004 91 270 0.0 0.0 0.00 0.00 0.00 41 1014.5
20260503184504 90 270 0.0 0.0 0.00 0.00 0.00 41 1014.5
20260503184004 90 270 0.0 0.0 0.00 0.00 0.00 42 1014.8
20260503183504 89 270 0.0 0.0 0.00 0.00 0.00 42 1014.9
20260503182504 89 248 0.0 0.0 0.00 0.00 0.00 43 1014.9
20260503181505 88 248 0.0 0.0 0.00 0.00 0.00 43 1014.9
20260503181004 87 248 0.0 0.0 0.00 0.00 0.00 44 1014.9
20260503180504 87 248 0.0 0.0 0.00 0.00 0.00 44 1014.9
20260503180004 86 248 0.0 0.0 0.00 0.00 0.00 45 1014.9
20260503175504 86 270 0.0 0.0 0.00 0.00 0.00 45 1015.2
20260503175004 85 270 0.0 0.0 0.00 0.00 0.00 46 1015.2
20260503174504 85 270 0.0 0.0 0.00 0.00 0.00 46 1015.2
20260503174004 84 270 0.0 0.0 0.00 0.00 0.00 46 1015.2
20260503173504 84 270 0.0 0.0 0.00 0.00 0.00 46 1015.2
20260503173004 83 270 0.0 0.0 0.00 0.00 0.00 47 1015.2
20260503172504 83 270 0.0 0.0 0.00 0.00 0.00 48 1015.2
20260503171504 81 270 0.0 0.0 0.00 0.00 0.00 49 1015.2
20260503170504 80 270 0.0 0.0 0.00 0.00 0.00 50 1015.5
20260503150503 63 270 0.0 0.0 0.00 0.00 0.00 72 1015.9
20260503131004 56 270 0.0 0.0 0.00 0.00 0.00 75 1015.5
20260503130504 56 270 0.0 0.0 0.00 0.00 0.00 75 1015.5
20260503081503 61 270 0.0 0.0 0.00 0.00 0.00 69 1015.9
20260503072005 62 270 0.0 0.0 0.00 0.00 0.00 67 1015.9
20260503071504 62 270 0.0 0.0 0.00 0.00 0.00 67 1015.9
20260503071005 62 270 0.0 0.0 0.00 0.00 0.00 67 1015.9
20260503070504 62 270 0.0 0.0 0.00 0.00 0.00 67 1015.9
20260503055004 65 202 0.0 0.0 0.00 0.00 0.00 64 1015.9
20260503054504 65 202 0.0 0.0 0.00 0.00 0.00 64 1015.9
20260503054004 65 202 0.0 0.0 0.00 0.00 0.00 64 1015.9
20260503053004 65 151 0.0 0.0 0.00 0.00 0.00 64 1015.9
20260503052504 65 135 0.0 0.0 0.00 0.00 0.00 64 1016.1
20260503052004 65 135 0.0 0.0 0.00 0.00 0.00 63 1016.2
20260503051504 66 135 0.0 0.0 0.00 0.00 0.00 63 1016.2
20260503051004 66 135 0.0 0.0 0.00 0.00 0.00 63 1016.5
20260503050504 66 135 0.0 0.0 0.00 0.00 0.00 63 1016.2
20260503050004 66 22 0.0 0.0 0.00 0.00 0.00 63 1016.4
20260503045504 67 22 0.0 0.0 0.00 0.00 0.00 63 1016.4
20260503044504 67 0 0.0 0.0 0.00 0.00 0.00 64 1016.2
20260503044004 67 0 0.0 0.0 0.00 0.00 0.00 63 1015.9
20260503043504 68 0 0.0 0.0 0.00 0.00 0.00 64 1015.9
20260503043004 68 0 0.0 0.0 0.00 0.00 0.00 65 1015.9
20260503042004 68 22 0.0 0.0 0.00 0.00 0.00 66 1016.2
20260503041504 69 22 0.0 0.0 0.00 0.00 0.00 64 1016.1
20260503040504 69 22 0.0 0.0 0.00 0.00 0.00 63 1015.9
20260503040004 69 22 0.0 0.0 0.00 0.00 0.00 62 1015.9
20260503035504 69 22 0.0 0.0 0.00 0.00 0.00 64 1015.5
20260503035004 69 22 0.0 0.0 0.00 0.00 0.00 64 1015.5
20260503034503 69 22 0.0 0.0 0.00 0.00 0.00 61 1015.5
20260503034004 69 22 0.0 0.0 0.00 0.00 0.00 59 1015.5
20260503033004 69 338 0.0 0.0 0.00 0.00 0.00 57 1015.2
20260503032504 70 338 0.0 0.0 0.00 0.00 0.00 57 1015.2
20260503032003 70 292 0.0 0.0 0.00 0.00 0.00 57 1015.2
20260503031504 70 292 0.0 0.0 0.00 0.00 0.00 57 1015.2
20260503031004 71 270 0.0 0.0 0.00 0.00 0.00 56 1015.2
20260503030503 71 270 0.0 0.0 0.00 0.00 0.00 56 1015.2
20260503030004 71 45 0.0 0.0 0.00 0.00 0.00 56 1014.9
20260503025504 72 22 0.0 0.0 0.00 0.00 0.00 55 1014.9
20260503025005 72 68 0.0 0.0 0.00 0.00 0.00 55 1015.2
20260503024504 72 68 0.0 0.0 0.00 0.00 0.00 55 1014.9
20260503023505 73 90 0.0 0.0 0.00 0.00 0.00 55 1014.9
20260503023004 74 91 0.0 0.0 0.00 0.00 0.00 56 1014.9
20260503022003 74 90 0.0 0.0 0.00 0.00 0.00 56 1014.5
20260503020504 74 135 0.0 0.0 0.00 0.00 0.00 55 1014.5
20260503020004 74 135 0.0 0.0 0.00 0.00 0.00 55 1014.5
20260503015504 73 294 0.0 0.0 0.00 0.00 0.00 56 1014.5
20260503014504 73 294 0.0 0.0 0.00 0.00 0.00 56 1014.2
20260503014004 73 294 0.0 0.0 0.00 0.00 0.00 56 1014.2
20260503013504 73 294 0.0 0.0 0.00 0.00 0.00 56 1014.2
20260503013004 73 294 0.0 0.0 0.00 0.00 0.00 56 1014.2
20260503012504 73 294 0.0 0.0 0.00 0.00 0.00 56 1014.2
20260503012004 73 294 0.0 0.0 0.00 0.00 0.00 56 1014.2
20260503011503 73 293 0.0 0.0 0.00 0.00 0.00 56 1014.2
20260503011004 73 292 0.0 0.0 0.00 0.00 0.00 56 1014.2
20260503010504 73 292 0.0 0.0 0.00 0.00 0.00 56 1014.2
20260503010004 73 292 0.0 0.0 0.00 0.00 0.00 56 1014.2
20260503005504 72 292 0.0 0.0 0.00 0.00 0.00 56 1014.5
20260503004504 72 292 0.0 0.0 0.00 0.00 0.00 56 1014.5
20260503004004 72 270 0.0 0.0 0.00 0.00 0.00 56 1014.5
20260503003504 72 270 0.0 0.0 0.00 0.00 0.00 56 1014.5
20260503003004 72 278 0.0 0.0 0.00 0.00 0.00 55 1014.5
20260503002504 72 270 0.0 0.0 0.00 0.00 0.00 55 1014.5
20260503002004 72 292 0.0 0.0 0.00 0.00 0.00 55 1014.7
20260503001504 72 278 0.0 0.0 0.00 0.00 0.00 55 1014.5
20260503001004 72 270 0.0 0.0 0.00 0.00 0.00 55 1014.7
20260503000504 72 270 0.0 0.0 0.00 0.00 0.00 55 1014.9
20260503000004 72 270 0.0 0.0 0.00 0.00 0.00 55 1014.9
20260502235503 71 270 0.0 0.0 0.00 0.00 0.00 55 1014.9
20260502235004 71 270 0.0 0.0 0.00 0.00 0.00 55 1014.9
20260502234504 71 270 0.0 0.0 0.00 0.00 0.00 55 1014.9
20260502234003 71 270 0.0 0.0 0.00 0.00 0.00 55 1014.9
20260502233504 71 270 0.0 0.0 0.00 0.00 0.00 55 1015.2
20260502232504 71 270 0.0 0.0 0.00 0.00 0.00 55 1015.2
20260502232005 71 270 0.0 0.0 0.00 0.00 0.00 55 1015.2
20260502231504 71 270 0.0 0.0 0.00 0.00 0.00 55 1015.2
20260502231004 71 270 0.0 0.0 0.00 0.00 0.00 55 1015.5
20260502230504 71 270 0.0 0.0 0.00 0.00 0.00 55 1015.5